This demonstration page uses our WeatherBlox Daily Observations layout. Learn more.

Left ArrowRight Arrow

Hourly Observations for May 25, 2022

Temp ( °F °C ) Dew Point ( °F °C ) Humidity (%) Winds ( mph kmh ) Pressure ( in mb ) Visibility ( mi km ) Precip ( " mm )
12:56 am 00:56 Cloudy with Light Rain N/A N/A N/A N 16 26 N/A 4 6 0.00 0.00
1:18 am 01:18 Cloudy N/A N/A N/A N 17 28 N/A 4 6 0.00 0.00
1:56 am 01:56 Cloudy with Light Rain 47 8.3 46 7.8 97 97 N 14 22 29.91 1013 7 11 0.00 0.00
2:56 am 02:56 Cloudy with Light Rain 47 8.3 46 7.8 97 97 N 16 26 29.89 1012 4 6 0.00 0.00
3:29 am 03:29 Cloudy with Light Rain 46 8 46 8 100 100 N 17 28 29.90 1013 10 16 0.00 0.00
3:56 am 03:56 Cloudy with Light Rain 47 8.3 46 7.8 97 97 N 18 30 29.88 1012 10 16 0.00 0.00
4:56 am 04:56 Cloudy with Light Rain 47 8.3 46 7.8 97 97 N 21 33 29.88 1012 10 16 0.00 0.00
5:56 am 05:56 Cloudy with Light Rain 47 8.3 45 7.2 93 93 N 22 35 29.90 1013 8 13 0.00 0.00
6:56 am 06:56 Cloudy with Light Rain 47 8.3 46 7.8 97 97 N 17 28 29.92 1013 10 16 0.00 0.00
7:56 am 07:56 Cloudy with Light Rain 47 8.3 46 7.8 97 97 N 21 33 29.93 1013 10 16 0.01 0.25
8:56 am 08:56 Cloudy with Light Rain 48 8.9 46 7.8 93 93 N 21 33 29.91 1013 10 16 0.00 0.00
9:56 am 09:56 Cloudy with Light Rain 48 8.9 46 7.8 93 93 N 22 35 29.91 1013 10 16 0.00 0.00
10:56 am 10:56 Cloudy 49 9.4 46 7.8 90 90 N 24 39 29.90 1013 10 16 0.00 0.00
11:07 am 11:07 Cloudy 48 9 46 8 94 94 N 24 39 29.90 1013 10 16 0.00 0.00
11:56 am 11:56 Cloudy 49 9.4 46 7.8 90 90 N 23 37 29.90 1013 10 16 0.00 0.00
12:44 pm 12:44 Cloudy 48 9 46 8 94 94 N 22 35 29.91 1013 10 16 0.00 0.00
12:56 pm 12:56 Cloudy 49 9.4 47 8.3 93 93 N 21 33 29.90 1013 10 16 0.00 0.00
1:56 pm 13:56 Cloudy with Light Rain 49 9.4 47 8.3 93 93 N 28 44 29.89 1012 10 16 0.00 0.00
2:56 pm 14:56 Cloudy 50 10 48 8.9 93 93 N 21 33 29.88 1012 10 16 0.00 0.00
3:04 pm 15:04 Cloudy 50 10 46 8 88 88 N 26 43 29.88 1012 10 16 0.00 0.00
3:23 pm 15:23 Cloudy 50 10 46 8 88 88 N 22 35 29.88 1012 10 16 0.00 0.00
3:38 pm 15:38 Cloudy 50 10 46 8 88 88 N 25 41 29.88 1012 10 16 0.00 0.00
3:56 pm 15:56 Cloudy 50 10 47 8.3 89 89 N 25 41 29.88 1012 10 16 0.00 0.00
4:19 pm 16:19 Cloudy 52 11 46 8 82 82 N 24 39 29.87 1011 10 16 0.00 0.00
4:48 pm 16:48 Cloudy 52 11 46 8 82 82 N 25 41 29.86 1011 10 16 0.00 0.00
4:56 pm 16:56 Cloudy 53 11.7 47 8.3 80 80 N 25 41 29.86 1011 10 16 0.00 0.00
5:56 pm 17:56 Cloudy 54 12.2 48 8.9 80 80 N 17 28 29.84 1011 10 16 0.00 0.00
6:09 pm 18:09 Cloudy 54 12 48 9 82 82 N 25 41 29.83 1010 10 16 0.00 0.00
6:56 pm 18:56 Mostly Cloudy 57 13.9 48 8.9 72 72 N 21 33 29.81 1010 10 16 0.00 0.00
7:56 pm 19:56 Partly Cloudy 57 13.9 46 7.8 67 67 N 28 44 29.81 1010 10 16 0.00 0.00
8:56 pm 20:56 Clear 55 12.8 46 7.8 72 72 N 18 30 29.83 1010 10 16 0.00 0.00
9:56 pm 21:56 Clear 53 11.7 46 7.8 77 77 N 16 26 29.84 1010 10 16 0.00 0.00
10:56 pm 22:56 Clear 51 10.6 46 7.8 83 83 N 14 22 29.85 1011 10 16 0.00 0.00
11:56 pm 23:56 Clear 50 10 46 7.8 86 86 N 15 24 29.85 1011 10 16 0.00 0.00

Powered by AerisWeather